Time,TemperatureF,DewpointF,PressureIn,WindDirection,WindDirectionDegrees,WindSpeedMPH,WindSpeedGustMPH,Humidity,HourlyPrecipIn,Conditions,Clouds,dailyrainin,SolarRadiationWatts/m^2,SoftwareType,DateUTC
2013-04-17 00:00:00,35.0,28.0,-100.00,NNE,22,5.0,-999.0,73,-99.99,,,-99.99,0.000000,,2013-04-17 04:00:00,
2013-04-17 00:43:00,35.0,28.0,-100.00,NNE,22,5.0,-999.0,73,-99.99,,,-99.99,0.000000,,2013-04-17 04:43:00,
2013-04-17 00:53:00,35.0,28.0,-100.00,NNE,22,5.0,-999.0,73,-99.99,,,-99.99,0.000000,,2013-04-17 04:53:00,
2013-04-17 01:00:00,34.0,27.0,-100.00,NNE,22,5.0,-999.0,76,-99.99,,,-99.99,0.000000,,2013-04-17 05:00:00,
2013-04-17 01:43:00,34.0,27.0,-100.00,NNE,22,5.0,-999.0,76,-99.99,,,-99.99,0.000000,,2013-04-17 05:43:00,
2013-04-17 01:52:00,34.0,27.0,-100.00,NNE,22,5.0,-999.0,76,-99.99,,,-99.99,0.000000,,2013-04-17 05:52:00,
2013-04-17 02:00:00,32.0,27.0,-100.00,NE,45,2.0,-999.0,81,-99.99,,,-99.99,0.000000,,2013-04-17 06:00:00,
2013-04-17 02:42:00,32.0,27.0,-100.00,NE,45,2.0,-999.0,81,-99.99,,,-99.99,0.000000,,2013-04-17 06:42:00,
2013-04-17 02:52:00,32.0,27.0,-100.00,NE,45,2.0,-999.0,81,-99.99,,,-99.99,0.000000,,2013-04-17 06:52:00,
2013-04-17 03:00:00,30.0,27.0,-100.00,East,90,2.0,-999.0,87,-99.99,,,-99.99,0.000000,,2013-04-17 07:00:00,
2013-04-17 03:42:00,30.0,27.0,-100.00,East,90,2.0,-999.0,87,-99.99,,,-99.99,0.000000,,2013-04-17 07:42:00,
2013-04-17 03:52:00,30.0,27.0,-100.00,East,90,2.0,-999.0,87,-99.99,,,-99.99,0.000000,,2013-04-17 07:52:00,
2013-04-17 04:00:00,29.0,27.0,-100.00,NE,45,1.0,-999.0,89,-99.99,,,-99.99,0.000000,,2013-04-17 08:00:00,
2013-04-17 04:42:00,29.0,27.0,-100.00,NE,45,1.0,-999.0,89,-99.99,,,-99.99,0.000000,,2013-04-17 08:42:00,
2013-04-17 04:52:00,29.0,27.0,-100.00,NE,45,1.0,-999.0,89,-99.99,,,-99.99,0.000000,,2013-04-17 08:52:00,
2013-04-17 05:00:00,29.0,27.0,-100.00,NE,45,0.0,-999.0,91,-99.99,,,-99.99,0.000000,,2013-04-17 09:00:00,
2013-04-17 05:42:00,29.0,27.0,-100.00,NE,45,0.0,-999.0,91,-99.99,,,-99.99,0.000000,,2013-04-17 09:42:00,
2013-04-17 05:53:00,29.0,27.0,-100.00,NE,45,0.0,-999.0,91,-99.99,,,-99.99,0.000000,,2013-04-17 09:53:00,
2013-04-17 06:00:00,27.0,26.0,-100.00,NE,45,1.0,-999.0,93,-99.99,,,-99.99,0.000000,,2013-04-17 10:00:00,
2013-04-17 06:43:00,27.0,26.0,-100.00,NE,45,1.0,-999.0,93,-99.99,,,-99.99,0.000000,,2013-04-17 10:43:00,
2013-04-17 06:53:00,27.0,26.0,-100.00,NE,45,1.0,-999.0,93,-99.99,,,-99.99,0.000000,,2013-04-17 10:53:00,
2013-04-17 07:00:00,29.0,27.0,-100.00,ENE,67,2.0,-999.0,93,-99.99,,,-99.99,1.160000,,2013-04-17 11:00:00,
2013-04-17 07:42:00,29.0,27.0,-100.00,ENE,67,2.0,-999.0,93,-99.99,,,-99.99,1.160000,,2013-04-17 11:42:00,
2013-04-17 07:52:00,29.0,27.0,-100.00,ENE,67,2.0,-999.0,93,-99.99,,,-99.99,1.160000,,2013-04-17 11:52:00,
2013-04-17 08:00:00,30.0,28.0,-100.00,East,90,0.0,-999.0,92,-99.99,,,-99.99,70.760002,,2013-04-17 12:00:00,
2013-04-17 08:42:00,30.0,28.0,-100.00,East,90,0.0,-999.0,92,-99.99,,,-99.99,70.760002,,2013-04-17 12:42:00,
2013-04-17 08:52:00,30.0,28.0,-100.00,East,90,0.0,-999.0,92,-99.99,,,-99.99,70.760002,,2013-04-17 12:52:00,
2013-04-17 09:00:00,34.0,29.0,-100.00,ENE,67,5.0,-999.0,84,-99.99,,,-99.99,229.679993,,2013-04-17 13:00:00,
2013-04-17 09:42:00,34.0,29.0,-100.00,ENE,67,5.0,-999.0,84,-99.99,,,-99.99,229.679993,,2013-04-17 13:42:00,
2013-04-17 09:52:00,34.0,29.0,-100.00,ENE,67,5.0,-999.0,84,-99.99,,,-99.99,229.679993,,2013-04-17 13:52:00,
2013-04-17 10:00:00,36.0,30.0,-100.00,East,90,9.0,-999.0,77,-99.99,,,-99.99,390.920013,,2013-04-17 14:00:00,
2013-04-17 10:43:00,36.0,30.0,-100.00,East,90,9.0,-999.0,77,-99.99,,,-99.99,390.920013,,2013-04-17 14:43:00,
2013-04-17 10:52:00,36.0,30.0,-100.00,East,90,9.0,-999.0,77,-99.99,,,-99.99,390.920013,,2013-04-17 14:52:00,
2013-04-17 11:00:00,41.0,30.0,-100.00,East,90,9.0,-999.0,66,-99.99,,,-99.99,445.440002,,2013-04-17 15:00:00,
2013-04-17 11:43:00,41.0,30.0,-100.00,East,90,9.0,-999.0,66,-99.99,,,-99.99,445.440002,,2013-04-17 15:43:00,
2013-04-17 11:53:00,41.0,30.0,-100.00,East,90,9.0,-999.0,66,-99.99,,,-99.99,445.440002,,2013-04-17 15:53:00,
2013-04-17 12:00:00,44.0,31.0,-100.00,East,90,8.0,-999.0,59,-99.99,,,-99.99,525.479980,,2013-04-17 16:00:00,
2013-04-17 12:42:00,44.0,31.0,-100.00,East,90,8.0,-999.0,59,-99.99,,,-99.99,525.479980,,2013-04-17 16:42:00,
2013-04-17 12:52:00,44.0,31.0,-100.00,East,90,8.0,-999.0,59,-99.99,,,-99.99,525.479980,,2013-04-17 16:52:00,
2013-04-17 13:00:00,45.0,31.0,-100.00,East,90,10.0,-999.0,56,-99.99,,,-99.99,486.040009,,2013-04-17 17:00:00,
2013-04-17 13:42:00,45.0,31.0,-100.00,East,90,10.0,-999.0,56,-99.99,,,-99.99,486.040009,,2013-04-17 17:42:00,
2013-04-17 13:52:00,45.0,31.0,-100.00,East,90,10.0,-999.0,56,-99.99,,,-99.99,486.040009,,2013-04-17 17:52:00,
2013-04-17 14:00:00,47.0,30.0,-100.00,East,90,10.0,-999.0,51,-99.99,,,-99.99,418.760010,,2013-04-17 18:00:00,
2013-04-17 14:42:00,47.0,30.0,-100.00,East,90,10.0,-999.0,51,-99.99,,,-99.99,418.760010,,2013-04-17 18:42:00,
2013-04-17 14:52:00,47.0,30.0,-100.00,East,90,10.0,-999.0,51,-99.99,,,-99.99,418.760010,,2013-04-17 18:52:00,
2013-04-17 16:00:00,48.0,29.0,-100.00,East,90,12.0,-999.0,47,-99.99,,,-99.99,201.839996,,2013-04-17 20:00:00,
2013-04-17 16:42:00,48.0,29.0,-100.00,East,90,12.0,-999.0,47,-99.99,,,-99.99,201.839996,,2013-04-17 20:42:00,
2013-04-17 16:52:00,48.0,29.0,-100.00,East,90,12.0,-999.0,47,-99.99,,,-99.99,201.839996,,2013-04-17 20:52:00,
2013-04-17 17:00:00,48.0,29.0,-100.00,ESE,112,9.0,-999.0,47,-99.99,,,-99.99,91.639999,,2013-04-17 21:00:00,
2013-04-17 17:43:00,48.0,29.0,-100.00,ESE,112,9.0,-999.0,47,-99.99,,,-99.99,91.639999,,2013-04-17 21:43:00,
2013-04-17 17:53:00,48.0,29.0,-100.00,ESE,112,9.0,-999.0,47,-99.99,,,-99.99,91.639999,,2013-04-17 21:53:00,
2013-04-17 18:00:00,47.0,28.0,-100.00,ESE,112,10.0,-999.0,47,-99.99,,,-99.99,47.560001,,2013-04-17 22:00:00,
2013-04-17 18:43:00,47.0,28.0,-100.00,ESE,112,10.0,-999.0,47,-99.99,,,-99.99,47.560001,,2013-04-17 22:43:00,
2013-04-17 18:53:00,47.0,28.0,-100.00,ESE,112,10.0,-999.0,47,-99.99,,,-99.99,47.560001,,2013-04-17 22:53:00,
2013-04-17 19:00:00,44.0,31.0,-100.00,East,90,8.0,-999.0,59,-99.99,,,-99.99,24.360001,,2013-04-17 23:00:00,
2013-04-17 19:42:00,44.0,31.0,-100.00,East,90,8.0,-999.0,59,-99.99,,,-99.99,24.360001,,2013-04-17 23:42:00,
2013-04-17 19:52:00,44.0,31.0,-100.00,East,90,8.0,-999.0,59,-99.99,,,-99.99,24.360001,,2013-04-17 23:52:00,
2013-04-17 21:00:00,39.0,33.0,-100.00,East,90,8.0,-999.0,79,-99.99,,,-99.99,1.160000,,2013-04-18 01:00:00,
2013-04-17 21:42:00,39.0,33.0,-100.00,East,90,8.0,-999.0,79,-99.99,,,-99.99,1.160000,,2013-04-18 01:42:00,
2013-04-17 21:52:00,39.0,33.0,-100.00,East,90,8.0,-999.0,79,-99.99,,,-99.99,1.160000,,2013-04-18 01:52:00,
2013-04-17 22:00:00,38.0,32.0,-100.00,East,90,10.0,-999.0,80,-99.99,,,-99.99,0.000000,,2013-04-18 02:00:00,
2013-04-17 23:00:00,37.0,32.0,-100.00,East,90,9.0,-999.0,81,-99.99,,,-99.99,0.000000,,2013-04-18 03:00:00,
2013-04-17 23:43:00,37.0,32.0,-100.00,East,90,9.0,-999.0,81,-99.99,,,-99.99,0.000000,,2013-04-18 03:43:00,
2013-04-17 23:53:00,37.0,32.0,-100.00,East,90,9.0,-999.0,81,-99.99,,,-99.99,0.000000,,2013-04-18 03:53:00,